Home > Weather > Glyfada > Past weeks

Flag for Greece Weather for the Past 2 Weeks in Glyfada, Greece

Now
45 °F

Drizzle. Partly sunny.


Feels Like: 39 °F
Forecast: 41 / 52 °F
Wind: 10 mph from Northeast

Location: Eleftherios Venizelos International Airport

Current Time: Feb 6, 2016 at 2:46:08 PM

Latest Report: Feb 6, 2016 at 1:50 PM


Visibility: N/A

Pressure: 30.33 "Hg

Humidity: 66%

Dew point: 34 °F

Location of GlyfadaLocation

Historic Weather in Glyfada — Graph

°F

Glyfada Temperature Yesterday

Maximum temperature yesterday: 57 °F (at 12:20 AM)
Minimum temperature yesterday: 41 °F (at 8:50 PM)
Average temperature yesterday: 47 °F

High & Low Weather Summary for the Past Weeks

 TemperatureHumidityPressure
High68 °F (Feb 2, 1:20 PM)94% (Jan 28, 9:50 AM)30.48 "Hg (Jan 28, 9:50 AM)
Low28 °F (Jan 26, 1:50 AM)40% (Feb 2, 1:20 PM)29.77 "Hg (Feb 5, 3:20 AM)
Average49 °F71%30.29 "Hg
* Reported Jan 22 1:20 PM — Feb 6 1:50 PM, Glyfada, Weather by CustomWeather, © 2016

Note: Actual official high and low records may vary slightly from our data, if they occured in-between our weather recording intervals... More about our weather records

Advertising

Glyfada Weather History for the Previous 24 Hours

 ConditionsComfort  
Time TempWeatherWind HumidityBarometerVisibility
1:50 PM
Sat, Feb 6
45 °FDrizzle. Partly sunny.10 mph66%30.33 "HgN/A
1:20 PM45 °FPartly sunny.14 mph71%30.33 "HgN/A
12:50 PM45 °FBroken clouds.10 mph71%30.36 "HgN/A
12:20 PM43 °FDrizzle. Broken clouds.10 mph76%30.36 "Hg6 mi
11:50 AM43 °FLight rain. Broken clouds.12 mph71%30.36 "Hg4 mi
11:20 AM43 °FLight rain. Partly sunny.8 mph71%30.36 "HgN/A
10:50 AM45 °FPartly sunny.8 mph71%30.36 "HgN/A
10:20 AM45 °FBroken clouds.8 mph71%30.36 "HgN/A
9:50 AM43 °FBroken clouds.10 mph76%30.36 "HgN/A
9:20 AM43 °FDrizzle. Broken clouds.10 mph76%30.33 "Hg6 mi
8:50 AM41 °FDrizzle. Broken clouds.5 mph76%30.33 "HgN/A
8:20 AM41 °FPartly sunny.6 mph76%30.30 "HgN/A
7:50 AM41 °FBroken clouds.6 mph76%30.30 "HgN/A
7:20 AM41 °FPartly cloudy.10 mph76%30.30 "Hg6 mi
6:50 AM41 °FLight rain. Partly cloudy.12 mph76%30.27 "HgN/A
5:50 AM41 °FPartly cloudy.15 mph76%30.24 "HgN/A
5:20 AM41 °FPartly cloudy.16 mph76%30.21 "HgN/A
4:50 AM41 °FLight rain. Passing clouds.13 mph76%30.21 "HgN/A
3:50 AM41 °FLight rain. Passing clouds.14 mph76%30.21 "HgN/A
3:20 AM41 °FLight rain. Partly cloudy.16 mph76%30.21 "HgN/A
2:20 AM41 °FLight rain. Partly cloudy.15 mph76%30.15 "HgN/A
1:50 AM41 °FLight rain. Partly cloudy.18 mph76%30.15 "HgN/A
1:20 AM41 °FLight rain. Partly cloudy.15 mph81%30.15 "HgN/A
12:50 AM41 °FLight rain. Partly cloudy.20 mph81%30.15 "HgN/A
12:20 AM41 °FLight rain. Partly cloudy.16 mph81%30.12 "HgN/A
11:50 PM
Fri, Feb 5
41 °FPassing clouds.17 mph81%30.12 "HgN/A
11:20 PM41 °FPartly cloudy.14 mph81%30.12 "HgN/A
10:50 PM41 °FLight rain. Passing clouds.23 mph81%30.09 "HgN/A
10:20 PM41 °FLight rain. Passing clouds.14 mph81%30.09 "HgN/A
9:50 PM41 °FLight rain. Passing clouds.6 mph81%30.09 "HgN/A
9:20 PM41 °FLight rain. Passing clouds.9 mph81%30.07 "HgN/A
8:50 PM41 °FLight rain. Passing clouds.14 mph81%30.04 "HgN/A
7:50 PM43 °FLight rain. Passing clouds.15 mph76%30.01 "HgN/A
7:20 PM43 °FLight rain. Passing clouds.17 mph76%29.98 "HgN/A
6:50 PM43 °FPassing clouds.15 mph76%29.98 "HgN/A
6:20 PM45 °FPassing clouds.13 mph71%29.95 "HgN/A
5:50 PM45 °FScattered clouds.15 mph76%29.92 "HgN/A
5:20 PM45 °FScattered clouds.20 mph76%29.92 "HgN/A
4:50 PM46 °FScattered clouds.17 mph71%29.89 "HgN/A
4:20 PM46 °FBroken clouds.16 mph71%29.89 "HgN/A
3:50 PM46 °FScattered clouds.18 mph71%29.86 "HgN/A
3:20 PM46 °FPartly sunny.12 mph71%29.86 "HgN/A
2:50 PM46 °FPartly sunny.15 mph71%29.86 "HgN/A
2:20 PM48 °FPartly sunny.16 mph66%29.83 "HgN/A
Weather by CustomWeather, © 2016

See weather overviewHow to use our weather pages